Погода в Ла-Гран-Мот

Франция     43°33′41″N   4°05′14″E
темп.,
°C
ветер,
м/с
пор.,
м/с
влажн.,
%
обл.,
%
осадки,
мм/ч
давл.,
гПа
погр.,
м
19 января, ср
ср1901:00+8ссв32670 0.0 1033152
04:00+8с32689 0.0 1032134
07:00+7с337140 0.0 1031149
10:00+7ссз227090 0.0 1032179
13:00+9юз22630 0.0 1030327
16:00+12зсз66520 0.0 1028896
19:00+9зсз911600 0.0 1028471
22:00+9зсз1113685 0.0 1029646
20 января, чт
чт2001:00+8сз1012672 0.0 1028581
04:00+8зсз1012671 0.0 1027533
07:00+8сз910651 0.0 1027405
10:00+9сз912623 0.0 1026676
13:00+11ссз912505 0.0 10251710
16:00+11ссз1011495 0.0 10231602
19:00+9ссз1012520 0.0 10241231
22:00+8сз813511 0.0 10241306
21 января, пт
пт2101:00+7ссз611500 0.0 10231235
04:00+6сз713490 0.0 10231308
07:00+5сз814499 0.0 10231341
10:00+6ссз10174714 0.0 10251507
13:00+8с1014400 0.0 10251734
16:00+8ссв1114460 0.0 10251662
19:00+7с812480 0.0 10261194
22:00+6ссз8144812 0.0 10281308
22 января, сб
сб2201:00+6ссз715530 0.0 10281257
04:00+5с812600 0.0 1028855
07:00+5с915630 0.0 1029942
10:00+5с712631 0.0 1030775
13:00+8ссз57515 0.0 10291051
16:00+10ссз25460 0.0 1027823
19:00+10ссз35534 0.0 1026406
22:00+8ссз34593 0.0 1026244
23 января, вс
вс2301:00+7с46665 0.0 1026365
04:00+7с47695 0.0 1026412
07:00+6с610735 0.0 1027487
10:00+7с712735 0.0 1028666
13:00+10ссв8106219 0.0 10281198
16:00+10св99607 0.0 10271185
19:00+9св9126711 0.0 1027702
22:00+8с712715 0.0 1028674